Location: Legnica
(51.2167°N, 16.1667°E)
Time: 03:19:01
(UTC+02:00)

ISS - Visible Passes

Search period start: 23 September 2018 00:00
Search period end: 03 October 2018 00:00
Orbit: 403 x 408 km, 51.6° (Epoch: 23 September)

Date Brightness Start Highest point End Pass type
(mag) Time Alt. Az. Time Alt. Az. Time Alt. Az.
23 Sep -1.7 19:37:09 10° SSE 19:38:30 12° SE 19:39:38 11° ESE visible
23 Sep -1.7 21:11:13 10° SW 21:12:21 19° SW 21:12:21 19° SW visible
24 Sep -3.0 20:19:37 10° SW 20:22:37 32° SSE 20:22:54 32° SE visible
25 Sep -2.3 19:28:16 10° SSW 19:30:53 22° SE 19:33:18 11° E visible
25 Sep -2.7 21:03:44 10° WSW 21:05:59 39° WSW 21:05:59 39° WSW visible
26 Sep -3.6 20:11:56 10° SW 20:15:10 54° SSE 20:16:15 34° E visible
26 Sep -0.8 21:48:19 10° W 21:48:56 15° W 21:48:56 15° W visible
27 Sep -3.1 19:20:14 10° SW 19:23:19 38° SSE 19:26:25 10° E visible
27 Sep -3.3 20:56:22 10° W 20:59:06 58° W 20:59:06 58° W visible
28 Sep -3.9 20:04:26 10° WSW 20:07:44 79° SSE 20:09:12 30° E visible
28 Sep -1.0 21:40:58 10° W 21:41:52 17° W 21:41:52 17° W visible
29 Sep -3.6 19:12:33 10° WSW 19:15:48 61° SSE 19:19:04 10° E visible
29 Sep -3.5 20:48:59 10° W 20:51:54 66° WNW 20:51:54 66° WNW visible
30 Sep -3.8 19:57:00 10° W 20:00:19 84° N 20:01:54 28° E visible
30 Sep -1.1 21:33:33 10° W 21:34:34 18° W 21:34:34 18° W visible
01 Oct -3.8 19:05:01 10° WSW 19:08:19 85° SSE 19:11:38 10° E visible
01 Oct -3.6 20:41:34 10° W 20:44:32 70° WNW 20:44:32 70° WNW visible
02 Oct -3.8 19:49:33 10° W 19:52:52 81° N 19:54:30 27° E visible
02 Oct -1.1 21:26:05 10° W 21:27:09 19° W 21:27:09 19° W visible
